This is the latest recevied weather packets stored in our database for station/object K1WJY. If no packets are shown the sender has not sent any weather packets the latest 10 day(s).
| Time | Temp. | Humidity | Pressure | Rain* | Wind** | Luminosity | Snow |
|---|---|---|---|---|---|---|---|
| 1777918208 | 12.22° C | 77% | 1008.5 hPa | 0 mm | - | 332 W/m² | - |
| 1777917907 | 12.22° C | 74% | 1008.4 hPa | 0 mm | - | 302 W/m² | - |
| 1777917605 | 12.22° C | 75% | 1008.3 hPa | 0 mm | - | 294 W/m² | - |
| 1777917302 | 11.67° C | 78% | 1008.4 hPa | 0 mm | - | 383 W/m² | - |
| 1777916999 | 11.67° C | 76% | 1008.3 hPa | 0 mm | - | 289 W/m² | - |
| 1777916696 | 11.67° C | 76% | 1008.1 hPa | 0 mm | - | 227 W/m² | - |
| 1777916393 | 11.67° C | 77% | 1008.3 hPa | 0 mm | - | 355 W/m² | - |
| 1777916090 | 11.67° C | 74% | 1008.2 hPa | 0 mm | - | 280 W/m² | - |
| 1777915787 | 11.67° C | 73% | 1008.3 hPa | 0 mm | - | 242 W/m² | - |
| 1777915483 | 12.22° C | 71% | 1008 hPa | 0 mm | - | 179 W/m² | - |
| 1777915180 | 12.22° C | 74% | 1007.6 hPa | 0 mm | - | 163 W/m² | - |
| 1777914877 | 12.78° C | 69% | 1007.5 hPa | 0 mm | - | 182 W/m² | - |
| 1777914574 | 12.78° C | 67% | 1007.6 hPa | 0 mm | - | 112 W/m² | - |
| 1777914270 | 12.78° C | 67% | 1007.5 hPa | 0 mm | - | 106 W/m² | - |
| 1777913967 | 13.33° C | 64% | 1007.7 hPa | 0 mm | - | 163 W/m² | - |
| 1777913664 | 13.89° C | 61% | 1007.4 hPa | 0 mm | - | 314 W/m² | - |
| 1777913361 | 13.89° C | 61% | 1007.3 hPa | 0 mm | - | 388 W/m² | - |
| 1777913057 | 13.89° C | 59% | 1007.3 hPa | 0 mm | - | 413 W/m² | - |
| 1777912753 | 13.89° C | 59% | 1007.5 hPa | 0 mm | - | 416 W/m² | - |
| 1777912449 | 13.89° C | 58% | 1007.4 hPa | 0 mm | - | 550 W/m² | - |
| 1777912146 | 13.33° C | 57% | 1007.3 hPa | 0 mm | - | 402 W/m² | - |
| 1777911841 | 12.78° C | 61% | 1007.5 hPa | 0 mm | - | 769 W/m² | - |
| 1777911539 | 12.78° C | 60% | 1007.7 hPa | 0 mm | - | 350 W/m² | - |
| 1777911235 | 12.78° C | 59% | 1007.7 hPa | 0 mm | - | 333 W/m² | - |
| 1777910932 | 13.33° C | 58% | 1007.8 hPa | 0 mm | - | 324 W/m² | - |
* Rain latest hour (hover to see other rain measurements)
** Current wind speed in m/s (hover to see current wind gust speed)